Regional Weather Roundup
Issued by NWS Jackson, KY

Home | Current Version | Previous Version | Text Only | Print | Product List | Glossary Off
Versions: 1 2 3 4 5 6 7 8 9 10 11 12 13 14 15 16 17 18 19 20 21 22 23 24 25 26 27 28 29 30 31 32 33 34 35 36 37 38 39 40 41 42 43 44 45 46 47 48 49 50

000
ASUS43 KJKL 070310
RWRJKL

EAST KENTUCKY HOURLY WEATHER ROUNDUP
NATIONAL WEATHER SERVICE JACKSON KY
1000 PM EST SAT FEB 06 2016

NOTE: "FAIR" INDICATES FEW OR NO CLOUDS BELOW 12,000 FEET WITH
NO SIGNIFICANT WEATHER AND/OR OBSTRUCTIONS TO VISIBILITY.

* THESE REPORTS ARE NOT UNDER NWS QUALITY CONTROL AND MAY NOT
  REPORT WEATHER SUCH AS PRECIPITATION AND FOG.

KYZ079-080-083-085-087-088-110-112-115-119-120-070400
...EASTERN KENTUCKY...

CITY           SKY/WX    TMP DP  RH WIND       PRES   REMARKS
JACKSON        CLEAR     40  20  44 W3        30.25S
LONDON         CLEAR     33  23  66 CALM      30.26S
SOMERSET*      CLEAR     32  25  74 CALM      30.29S
MONTICELLO*    PTCLDY    28  25  88 CALM      30.29S
WILLIAMSBURG*  CLEAR     36  27  69 CALM      30.27S
MIDDLESBORO*   PTCLDY    33  27  79 CALM      30.28S
HARLAN APT*      N/A     34  23  64 CALM      30.26S
BLACK MTN*       N/A     28  19  69 NE1         N/A
BIG SANDY*     PTCLDY    41  21  45 CALM      30.25S
MOREHEAD APT*  CLEAR     37  23  56 SW3       30.27S
$$

KYZ035-036-041-042-044-050-067-078-099-070400
...CENTRAL KENTUCKY...

CITY           SKY/WX    TMP DP  RH WIND       PRES   REMARKS
MT STERLING*   CLEAR     30  27  86 W3        30.27S
DANVILLE*      CLEAR     32  25  74 CALM      30.27F
RICHMOND*      CLEAR     39  21  48 S5        30.25F
LEXINGTON      CLEAR     35  23  61 S5        30.25F WCI  31
FRANKFORT      CLEAR     31  23  72 CALM      30.24F
$$

KYZ091>093-OHZ055-061-077-WVZ005-015-034-035-042-070400
...SOUTHERN OHIO/WEST VIRGINIA...

CITY           SKY/WX    TMP DP  RH WIND       PRES   REMARKS
COVINGTON      CLEAR     31  25  78 S6        30.23F WCI  25
COLUMBUS       CLEAR     31  17  56 CALM      30.22F
DAYTON         CLEAR     33  23  66 S7        30.21F WCI  27
WILMINGTON     CLEAR     30  23  75 S5        30.22F WCI  25
HUNTINGTON       N/A     37  22  54 CALM      30.25S
CHARLESTON       N/A     36  22  56 CALM      30.25S
PINEVILLE*       N/A     32  24  71 MISG      30.28F
BECKLEY          N/A     35  16  45 CALM      30.21F
$$

VAZ002-007-008-TNZ017-027-036-066-071-070400
...SOUTHWEST VIRGINIA/EAST TENNESSEE...

CITY           SKY/WX    TMP DP  RH WIND       PRES   REMARKS
BRISTOL        CLOUDY    31  22  69 CALM      30.26S
KNOXVILLE      MOCLDY    38  22  52 NE3       30.27
OAK RIDGE      CLOUDY    38  27  64 CALM      30.29S
CROSSVILLE     CLOUDY    35  22  58 CALM      30.26S
NASHVILLE      PTCLDY    37  23  56 S5        30.29F WCI  33
$$

...KEY TO REMARKS...
VSB - VISIBILITY IN MILES
WCI - WIND CHILL INDEX
HX  - HEAT INDEX

$$



USA.gov is the U.S. government's official web portal to all federal, state and local government web resources and services.